{"data":{"norad_id":89029,"epoch":"2026-05-23T00:23:08.886912Z","epoch_age_seconds":243684,"freshness":"STALE","line1":"1 89029U          26143.01607508  .00003876  00000+0  34574-3 0  9990","line2":"2 89029  98.0388  51.5153 0022667 146.7971 213.4677 14.96408228675185","mean_motion":14.96408228,"eccentricity":0.0022667,"inclination_deg":98.0388,"raan_deg":51.5153,"arg_perigee_deg":146.7971,"mean_anomaly_deg":213.4677,"bstar":0.00034574,"rev_number":67518,"period_min":96.230425164436,"perigee_km":562.23768415547,"apogee_km":593.77265907627,"semimajor_km":6956.1421716159,"source":"CELESTRAK","updated_at":"2026-05-25T13:38:11.777244Z"}}